{"data":{"norad_id":41434,"intl_designator":"2016-021A","name":"BEIDOU-2 IGSO-6 (C13)","alt_names":[],"object_type":"PAYLOAD","status":"ACTIVE","operator":null,"country":"PRC","launch_date":"2016-03-29","launch_site_code":"XICLF","launch_vehicle":null,"mission":null,"orbit_class":"UNKNOWN","rcs_meters":26.1904,"size_class":null,"mass_kg":null,"dimensions":null,"purposes":["comms","nav"],"wikipedia_slug":null,"has_3d_model":false,"image_url":null,"decayed_at":null,"tle_current":{"epoch":"2026-05-24T16:12:34.305120Z","epoch_age_seconds":113792,"freshness":"FRESH","line1":"1 41434U 16021A   26144.67539705 -.00000178  00000+0  00000+0 0  9990","line2":"2 41434  60.1943  38.2721 0057467 232.2820 308.9754  1.00263774 37244","mean_motion":1.00263774,"eccentricity":0.0057467,"inclination_deg":60.1943,"raan_deg":38.2721,"arg_perigee_deg":232.282,"mean_anomaly_deg":308.9754,"bstar":0,"rev_number":3724,"period_min":1436.21164709,"perigee_km":35546.519913016,"apogee_km":36031.161856638,"semimajor_km":42166.977884827,"source":"CELESTRAK","updated_at":"2026-05-25T13:38:24.215332Z"}}}